LHX7TA EDDF-EGLL

Flight info

Callsign LHX7TA
Flight time 1h 8m
Altitude 38000
Route OBOKA4G OBOKA Z29 TORNU DCT ABNED L980 LOGAN
Aircraft A20N/M-SDE2E3FGHIRWXY/LB1

Departure

Time 2026-05-06 10:23
Airport Frankfurt Main Airport (EDDF)

Arrival

Time 2026-05-06 11:31
Airport London Heathrow Airport (EGLL)
Time Latitude Longitude Altitude Speed Heading
2026-05-06 10:03 50.04917 8.57085 379 ft 0 kts 98°
2026-05-06 10:17 50.04915 8.57093 379 ft 0 kts 141°
2026-05-06 10:17 50.04895 8.57090 379 ft 4 kts 193°
2026-05-06 10:18 50.04855 8.57074 378 ft 7 kts 199°
2026-05-06 10:18 50.04798 8.57037 377 ft 10 kts 205°
2026-05-06 10:18 50.04717 8.56979 375 ft 15 kts 206°
2026-05-06 10:18 50.04615 8.56913 373 ft 16 kts 193°
2026-05-06 10:19 50.04538 8.56885 372 ft 3 kts 194°
2026-05-06 10:19 50.04531 8.56883 372 ft 0 kts 194°
2026-05-06 10:19 50.04529 8.56882 372 ft 1 kts 194°
2026-05-06 10:19 50.04482 8.56864 371 ft 12 kts 193°
2026-05-06 10:20 50.04371 8.56835 369 ft 17 kts 191°
2026-05-06 10:20 50.04288 8.56838 366 ft 11 kts 136°
2026-05-06 10:20 50.04289 8.56959 367 ft 12 kts 69°
2026-05-06 10:20 50.04327 8.57114 368 ft 17 kts 70°
2026-05-06 10:21 50.04372 8.57301 369 ft 18 kts 70°
2026-05-06 10:21 50.04416 8.57489 367 ft 15 kts 70°
2026-05-06 10:21 50.04421 8.57614 366 ft 11 kts 121°
2026-05-06 10:21 50.04347 8.57679 365 ft 13 kts 159°
2026-05-06 10:22 50.04263 8.57646 363 ft 15 kts 244°
2026-05-06 10:22 50.04196 8.57376 363 ft 59 kts 251°
2026-05-06 10:22 50.03956 8.56362 351 ft 137 kts 250°
2026-05-06 10:22 50.03581 8.54781 751 ft 163 kts 249°
2026-05-06 10:23 50.03195 8.53145 1576 ft 166 kts 249°
2026-05-06 10:23 50.02790 8.51462 2266 ft 177 kts 249°
2026-05-06 10:23 50.02106 8.49807 2854 ft 196 kts 221°
2026-05-06 10:23 50.00806 8.48942 3492 ft 216 kts 196°
2026-05-06 10:24 49.99333 8.48383 4439 ft 221 kts 197°
2026-05-06 10:24 49.97870 8.47799 5450 ft 221 kts 197°
2026-05-06 10:24 49.96394 8.47207 6360 ft 224 kts 198°
2026-05-06 10:24 49.94902 8.46534 7159 ft 231 kts 199°
2026-05-06 10:25 49.93317 8.45795 7793 ft 247 kts 199°
2026-05-06 10:25 49.91727 8.44759 8509 ft 256 kts 217°
2026-05-06 10:25 49.90548 8.42755 9526 ft 253 kts 236°
2026-05-06 10:25 49.89638 8.40455 10523 ft 252 kts 239°
2026-05-06 10:26 49.88878 8.38015 11362 ft 258 kts 252°
2026-05-06 10:26 49.88636 8.35252 12087 ft 269 kts 270°
2026-05-06 10:26 49.88757 8.32271 12598 ft 287 kts 271°
2026-05-06 10:26 49.88965 8.29097 13056 ft 306 kts 278°
2026-05-06 10:27 49.89610 8.25888 13496 ft 327 kts 291°
2026-05-06 10:27 49.90814 8.22785 14190 ft 338 kts 302°
2026-05-06 10:27 49.92200 8.19885 14998 ft 342 kts 304°
2026-05-06 10:27 49.93710 8.17015 15831 ft 346 kts 309°
2026-05-06 10:28 49.95390 8.14328 16599 ft 351 kts 314°
2026-05-06 10:28 49.97242 8.11780 17360 ft 356 kts 316°
2026-05-06 10:28 49.99122 8.09283 18090 ft 360 kts 316°
2026-05-06 10:28 50.01020 8.06770 18803 ft 364 kts 316°
2026-05-06 10:29 50.02947 8.04209 19524 ft 367 kts 316°
2026-05-06 10:29 50.04893 8.01611 20261 ft 370 kts 316°
2026-05-06 10:29 50.06839 7.99006 20994 ft 372 kts 316°
2026-05-06 10:29 50.08812 7.96358 21718 ft 375 kts 316°
2026-05-06 10:30 50.10783 7.93709 22420 ft 378 kts 315°
2026-05-06 10:30 50.12769 7.91035 23087 ft 381 kts 315°
2026-05-06 10:30 50.14805 7.88288 23741 ft 385 kts 316°
2026-05-06 10:30 50.16828 7.85554 24356 ft 388 kts 316°
2026-05-06 10:31 50.18874 7.82789 24928 ft 392 kts 316°
2026-05-06 10:31 50.20931 7.80006 25446 ft 397 kts 316°
2026-05-06 10:31 50.23036 7.77176 25954 ft 402 kts 317°
2026-05-06 10:31 50.25296 7.74571 26448 ft 409 kts 324°
2026-05-06 10:32 50.27784 7.72300 26937 ft 415 kts 330°
2026-05-06 10:32 50.30386 7.70397 27408 ft 420 kts 334°
2026-05-06 10:32 50.33085 7.68563 27863 ft 424 kts 334°
2026-05-06 10:32 50.35812 7.66728 28295 ft 428 kts 335°
2026-05-06 10:33 50.38539 7.64873 28711 ft 431 kts 335°
2026-05-06 10:33 50.41319 7.62970 29118 ft 435 kts 335°
2026-05-06 10:33 50.44100 7.61061 29490 ft 438 kts 336°
2026-05-06 10:33 50.46879 7.59142 29842 ft 442 kts 336°
2026-05-06 10:34 50.49687 7.57208 30198 ft 445 kts 337°
2026-05-06 10:34 50.52516 7.55249 30582 ft 446 kts 336°
2026-05-06 10:34 50.55313 7.53106 31109 ft 444 kts 334°
2026-05-06 10:34 50.58010 7.50721 31668 ft 440 kts 330°
2026-05-06 10:35 50.60602 7.48164 32142 ft 437 kts 327°
2026-05-06 10:35 50.63141 7.45555 32496 ft 437 kts 327°
2026-05-06 10:35 50.65676 7.42927 32818 ft 436 kts 327°
2026-05-06 10:35 50.68215 7.40264 33164 ft 434 kts 324°
2026-05-06 10:36 50.70573 7.37395 33476 ft 433 kts 319°
2026-05-06 10:36 50.72767 7.34195 33771 ft 430 kts 312°
2026-05-06 10:36 50.74765 7.30689 34066 ft 428 kts 306°
2026-05-06 10:36 50.76540 7.26930 34370 ft 425 kts 301°
2026-05-06 10:37 50.78059 7.23017 34701 ft 422 kts 296°
2026-05-06 10:37 50.79418 7.18928 35010 ft 420 kts 294°
2026-05-06 10:37 50.80727 7.14836 35293 ft 419 kts 294°
2026-05-06 10:37 50.82041 7.10720 35561 ft 419 kts 294°
2026-05-06 10:38 50.83358 7.06617 35810 ft 419 kts 294°
2026-05-06 10:38 50.84666 7.02556 36052 ft 419 kts 294°
2026-05-06 10:38 50.85986 6.98471 36256 ft 420 kts 295°
2026-05-06 10:38 50.87327 6.94327 36431 ft 421 kts 294°
2026-05-06 10:39 50.88657 6.90209 36612 ft 423 kts 294°
2026-05-06 10:39 50.89990 6.86072 36795 ft 424 kts 294°
2026-05-06 10:39 50.91319 6.81932 36974 ft 425 kts 294°
2026-05-06 10:39 50.92654 6.77772 37149 ft 426 kts 294°
2026-05-06 10:40 50.93996 6.73573 37320 ft 427 kts 294°
2026-05-06 10:40 50.95345 6.69351 37482 ft 429 kts 294°
2026-05-06 10:40 50.96694 6.65119 37653 ft 429 kts 294°
2026-05-06 10:40 50.98033 6.60909 37788 ft 430 kts 294°
2026-05-06 10:41 51.00727 6.52411 37823 ft 438 kts 294°
2026-05-06 10:41 51.03484 6.43684 37829 ft 443 kts 295°
2026-05-06 10:42 51.06232 6.34964 37839 ft 443 kts 294°
2026-05-06 10:42 51.08976 6.26213 37841 ft 443 kts 294°
2026-05-06 10:43 51.11714 6.17447 37848 ft 442 kts 293°
2026-05-06 10:44 51.15024 6.03830 37852 ft 440 kts 283°
2026-05-06 10:44 51.16577 5.94396 37852 ft 439 kts 282°
2026-05-06 10:45 51.18158 5.85062 37856 ft 440 kts 285°
2026-05-06 10:45 51.20307 5.75906 37858 ft 442 kts 290°
2026-05-06 10:46 51.22697 5.66873 37863 ft 443 kts 291°
2026-05-06 10:46 51.25084 5.57834 37864 ft 442 kts 291°
2026-05-06 10:47 51.27466 5.48751 37870 ft 442 kts 291°
2026-05-06 10:47 51.29835 5.39674 37866 ft 443 kts 291°
2026-05-06 10:48 51.32185 5.30631 37875 ft 443 kts 290°
2026-05-06 10:48 51.34527 5.21575 37872 ft 443 kts 290°
2026-05-06 10:49 51.36875 5.12467 37874 ft 442 kts 290°
2026-05-06 10:49 51.39201 5.03404 37875 ft 443 kts 290°
2026-05-06 10:50 51.41520 4.94332 37875 ft 442 kts 290°
2026-05-06 10:50 51.43840 4.85218 37873 ft 442 kts 290°
2026-05-06 10:51 51.46147 4.76119 37873 ft 443 kts 290°
2026-05-06 10:51 51.48452 4.66996 37876 ft 443 kts 290°
2026-05-06 10:52 51.50744 4.57882 37881 ft 442 kts 290°
2026-05-06 10:52 51.53022 4.48789 37879 ft 442 kts 290°
2026-05-06 10:53 51.55298 4.39664 37877 ft 442 kts 290°
2026-05-06 10:53 51.57581 4.30467 37874 ft 442 kts 290°
2026-05-06 10:54 51.59837 4.21345 37882 ft 441 kts 290°
2026-05-06 10:54 51.62077 4.12256 37886 ft 441 kts 290°
2026-05-06 10:55 51.64331 4.03067 37882 ft 441 kts 290°
2026-05-06 10:55 51.66565 3.93923 37886 ft 441 kts 290°
2026-05-06 10:56 51.68783 3.84809 37901 ft 441 kts 290°
2026-05-06 10:56 51.71011 3.75610 37899 ft 441 kts 290°
2026-05-06 10:57 51.73209 3.66494 37900 ft 440 kts 290°
2026-05-06 10:57 51.75420 3.57285 37903 ft 440 kts 290°
2026-05-06 10:58 51.77613 3.48108 37907 ft 440 kts 290°
2026-05-06 10:58 51.79798 3.38922 37907 ft 440 kts 290°
2026-05-06 10:59 51.81953 3.29766 37910 ft 439 kts 288°
2026-05-06 10:59 51.83533 3.20277 37915 ft 437 kts 279°
2026-05-06 11:00 51.84170 3.10538 37925 ft 436 kts 270°
2026-05-06 11:00 51.83884 3.00835 37928 ft 435 kts 263°
2026-05-06 11:01 51.83239 2.91170 37930 ft 434 kts 263°
2026-05-06 11:01 51.82914 2.86334 37813 ft 429 kts 263°
2026-05-06 11:01 51.82599 2.81625 37392 ft 430 kts 263°
2026-05-06 11:01 51.82272 2.76763 36722 ft 437 kts 263°
2026-05-06 11:02 51.81949 2.71958 36203 ft 437 kts 263°
2026-05-06 11:02 51.81624 2.67107 35739 ft 436 kts 263°
2026-05-06 11:02 51.81294 2.62237 35235 ft 436 kts 264°
2026-05-06 11:02 51.80964 2.57426 34631 ft 437 kts 264°
2026-05-06 11:03 51.80627 2.52560 33899 ft 438 kts 263°
2026-05-06 11:03 51.80290 2.47717 33171 ft 438 kts 263°
2026-05-06 11:03 51.79948 2.42843 32422 ft 438 kts 263°
2026-05-06 11:03 51.79602 2.37959 31639 ft 439 kts 263°
2026-05-06 11:04 51.79254 2.33098 30832 ft 439 kts 262°
2026-05-06 11:04 51.78902 2.28237 29954 ft 440 kts 262°
2026-05-06 11:04 51.78548 2.23355 29269 ft 435 kts 262°
2026-05-06 11:04 51.78231 2.18554 28685 ft 430 kts 263°
2026-05-06 11:05 51.77956 2.13789 28064 ft 425 kts 264°
2026-05-06 11:05 51.77691 2.09086 27378 ft 422 kts 264°
2026-05-06 11:05 51.77424 2.04433 26778 ft 418 kts 264°
2026-05-06 11:05 51.77155 1.99835 26288 ft 411 kts 264°
2026-05-06 11:06 51.76886 1.95326 26099 ft 401 kts 264°
2026-05-06 11:06 51.76616 1.90863 25960 ft 399 kts 264°
2026-05-06 11:06 51.76347 1.86436 25798 ft 397 kts 264°
2026-05-06 11:06 51.76081 1.82089 25570 ft 387 kts 264°
2026-05-06 11:07 51.75816 1.77813 25451 ft 378 kts 264°
2026-05-06 11:07 51.75555 1.73604 25325 ft 384 kts 264°
2026-05-06 11:07 51.75286 1.69317 25187 ft 385 kts 264°
2026-05-06 11:07 51.75015 1.65002 25044 ft 385 kts 264°
2026-05-06 11:08 51.74745 1.60733 24889 ft 384 kts 264°
2026-05-06 11:08 51.74477 1.56474 24383 ft 382 kts 264°
2026-05-06 11:08 51.74212 1.52280 23905 ft 378 kts 264°
2026-05-06 11:08 51.73943 1.48074 23416 ft 375 kts 264°
2026-05-06 11:09 51.73676 1.43929 22897 ft 373 kts 264°
2026-05-06 11:09 51.73407 1.39782 22389 ft 370 kts 264°
2026-05-06 11:09 51.73143 1.35735 21882 ft 366 kts 264°
2026-05-06 11:09 51.72876 1.31688 21367 ft 364 kts 264°
2026-05-06 11:10 51.72611 1.27669 20796 ft 363 kts 264°
2026-05-06 11:10 51.72342 1.23611 20187 ft 363 kts 264°
2026-05-06 11:10 51.72076 1.19621 19650 ft 361 kts 264°
2026-05-06 11:10 51.71809 1.15638 19142 ft 358 kts 264°
2026-05-06 11:11 51.71542 1.11683 18625 ft 355 kts 264°
2026-05-06 11:11 51.71276 1.07767 18109 ft 353 kts 264°
2026-05-06 11:11 51.71009 1.03856 17590 ft 350 kts 264°
2026-05-06 11:11 51.70740 0.99940 17070 ft 348 kts 264°
2026-05-06 11:12 51.70477 0.96124 16560 ft 346 kts 264°
2026-05-06 11:12 51.70211 0.92253 16040 ft 344 kts 264°
2026-05-06 11:12 51.69951 0.88484 15551 ft 342 kts 264°
2026-05-06 11:12 51.69686 0.84678 15049 ft 339 kts 264°
2026-05-06 11:13 51.69426 0.80977 14541 ft 337 kts 264°
2026-05-06 11:13 51.69161 0.77228 14037 ft 335 kts 264°
2026-05-06 11:13 51.68900 0.73549 13541 ft 333 kts 264°
2026-05-06 11:13 51.68636 0.69842 13045 ft 331 kts 265°
2026-05-06 11:14 51.68374 0.66162 12557 ft 329 kts 265°
2026-05-06 11:14 51.68114 0.62527 12076 ft 327 kts 265°
2026-05-06 11:14 51.67857 0.58951 11625 ft 322 kts 265°
2026-05-06 11:14 51.67600 0.55416 11081 ft 312 kts 265°
2026-05-06 11:15 51.67351 0.51996 10546 ft 301 kts 265°
2026-05-06 11:15 51.67113 0.48740 10075 ft 293 kts 265°
2026-05-06 11:15 51.66879 0.45515 9707 ft 289 kts 265°
2026-05-06 11:15 51.66645 0.42315 9338 ft 287 kts 265°
2026-05-06 11:16 51.66410 0.39124 8966 ft 284 kts 265°
2026-05-06 11:16 51.66180 0.36002 8611 ft 282 kts 265°
2026-05-06 11:16 51.65949 0.32894 8264 ft 279 kts 265°
2026-05-06 11:16 51.65718 0.29810 7928 ft 277 kts 265°
2026-05-06 11:17 51.65487 0.26722 7583 ft 275 kts 265°
2026-05-06 11:17 51.65258 0.23685 7252 ft 274 kts 265°
2026-05-06 11:17 51.65028 0.20611 7087 ft 278 kts 265°
2026-05-06 11:17 51.64798 0.17531 7034 ft 279 kts 265°
2026-05-06 11:18 51.64562 0.14401 7007 ft 279 kts 265°
2026-05-06 11:18 51.64324 0.11321 6997 ft 277 kts 265°
2026-05-06 11:18 51.64090 0.08370 6985 ft 261 kts 265°
2026-05-06 11:18 51.63859 0.05545 6984 ft 247 kts 265°
2026-05-06 11:19 51.63635 0.02807 6994 ft 247 kts 265°
2026-05-06 11:19 51.63410 0.00079 6989 ft 247 kts 265°
2026-05-06 11:19 51.63185 -0.02635 6987 ft 246 kts 265°
2026-05-06 11:19 51.62955 -0.05391 6986 ft 246 kts 265°
2026-05-06 11:20 51.62729 -0.08097 6987 ft 246 kts 265°
2026-05-06 11:20 51.62497 -0.10852 6989 ft 246 kts 265°
2026-05-06 11:20 51.62267 -0.13562 6990 ft 246 kts 265°
2026-05-06 11:20 51.62035 -0.16292 6992 ft 246 kts 265°
2026-05-06 11:21 51.61805 -0.19002 6993 ft 247 kts 265°
2026-05-06 11:21 51.61573 -0.21738 6993 ft 247 kts 265°
2026-05-06 11:21 51.61340 -0.24482 6995 ft 247 kts 265°
2026-05-06 11:21 51.61104 -0.27239 6992 ft 247 kts 265°
2026-05-06 11:22 51.60870 -0.29934 6994 ft 246 kts 265°
2026-05-06 11:22 51.60634 -0.32679 6994 ft 246 kts 265°
2026-05-06 11:22 51.60403 -0.35364 6994 ft 245 kts 265°
2026-05-06 11:22 51.60170 -0.38075 6996 ft 245 kts 265°
2026-05-06 11:23 51.59936 -0.40778 6992 ft 245 kts 265°
2026-05-06 11:23 51.59697 -0.43499 6983 ft 244 kts 263°
2026-05-06 11:23 51.59283 -0.46111 6725 ft 244 kts 253°
2026-05-06 11:23 51.58620 -0.48659 6364 ft 246 kts 248°
2026-05-06 11:24 51.57876 -0.51103 6043 ft 246 kts 247°
2026-05-06 11:24 51.57104 -0.53569 5718 ft 245 kts 246°
2026-05-06 11:24 51.56338 -0.56007 5394 ft 245 kts 246°
2026-05-06 11:24 51.55581 -0.58415 4984 ft 243 kts 246°
2026-05-06 11:25 51.54822 -0.60830 4495 ft 243 kts 246°
2026-05-06 11:25 51.54059 -0.63256 4105 ft 243 kts 246°
2026-05-06 11:25 51.53298 -0.65666 3796 ft 242 kts 246°
2026-05-06 11:25 51.52547 -0.68047 3480 ft 241 kts 246°
2026-05-06 11:26 51.51785 -0.70449 3118 ft 240 kts 246°
2026-05-06 11:26 51.50911 -0.72728 2772 ft 243 kts 227°
2026-05-06 11:26 51.49504 -0.74096 2515 ft 235 kts 193°
2026-05-06 11:26 51.47931 -0.74206 2230 ft 223 kts 172°
2026-05-06 11:27 51.46531 -0.73420 2011 ft 204 kts 135°
2026-05-06 11:27 51.45801 -0.71639 2077 ft 186 kts 98°
2026-05-06 11:27 51.45964 -0.69798 2021 ft 159 kts 56°
2026-05-06 11:27 51.46638 -0.68459 2016 ft 152 kts 45°
2026-05-06 11:28 51.47330 -0.67184 2009 ft 153 kts 50°
2026-05-06 11:28 51.47681 -0.65567 2010 ft 159 kts 78°
2026-05-06 11:28 51.47738 -0.63777 1947 ft 161 kts 84°
2026-05-06 11:28 51.47732 -0.61994 1739 ft 160 kts 85°
2026-05-06 11:29 51.47722 -0.60215 1548 ft 158 kts 84°
2026-05-06 11:29 51.47718 -0.58535 1315 ft 147 kts 84°
2026-05-06 11:29 51.47721 -0.56943 1117 ft 137 kts 84°
2026-05-06 11:29 51.47726 -0.55475 933 ft 131 kts 83°
2026-05-06 11:30 51.47732 -0.54012 773 ft 129 kts 84°
2026-05-06 11:30 51.47736 -0.52579 605 ft 130 kts 84°
2026-05-06 11:30 51.47740 -0.51143 438 ft 127 kts 84°
2026-05-06 11:30 51.47744 -0.49758 254 ft 126 kts 84°
2026-05-06 11:31 51.47748 -0.48324 101 ft 129 kts 84°
2026-05-06 11:31 51.47758 -0.47037 85 ft 93 kts 89°
2026-05-06 11:31 51.47758 -0.46259 82 ft 52 kts 89°
2026-05-06 11:31 51.47760 -0.45713 83 ft 39 kts 88°
2026-05-06 11:32 51.47745 -0.45508 84 ft 9 kts 127°
2026-05-06 11:32 51.47687 -0.45468 84 ft 7 kts 180°
2026-05-06 11:32 51.47637 -0.45468 85 ft 7 kts 179°
2026-05-06 11:32 51.47585 -0.45467 86 ft 7 kts 179°
2026-05-06 11:33 51.47531 -0.45465 87 ft 7 kts 167°
2026-05-06 11:33 51.47507 -0.45403 89 ft 6 kts 91°
2026-05-06 11:33 51.47508 -0.45336 90 ft 5 kts 88°
2026-05-06 11:33 51.47509 -0.45262 90 ft 10 kts 89°
2026-05-06 11:34 51.47509 -0.45088 92 ft 17 kts 89°
2026-05-06 11:34 51.47510 -0.44900 94 ft 16 kts 90°
2026-05-06 11:34 51.47510 -0.44705 91 ft 18 kts 89°
2026-05-06 11:34 51.47490 -0.44583 91 ft 10 kts 138°
2026-05-06 11:35 51.47419 -0.44561 92 ft 10 kts 179°
2026-05-06 11:35 51.47333 -0.44560 94 ft 13 kts 179°
2026-05-06 11:35 51.47229 -0.44559 94 ft 15 kts 179°
2026-05-06 11:35 51.47121 -0.44558 96 ft 15 kts 179°
2026-05-06 11:36 51.47019 -0.44557 97 ft 14 kts 180°
2026-05-06 11:36 51.46915 -0.44556 95 ft 15 kts 179°
2026-05-06 11:36 51.46837 -0.44559 94 ft 7 kts 198°
2026-05-06 11:36 51.46820 -0.44645 93 ft 8 kts 267°
2026-05-06 11:37 51.46819 -0.44670 93 ft 1 kts 267°
2026-05-06 11:37 51.46819 -0.44671 93 ft 0 kts 267°